Weather History for Big Bear City, CA

Change the Weather History Date:

Monday, April 30, 2012

  Actual Average (KBUO) Record (KBUO)
Temperature  
Mean Temperature 48 °F -  
Max Temperature 64 °F 71 °F 91 °F (2001)
Min Temperature 32 °F 46 °F 42 °F (1999)
Degree Days  
Heating Degree Days 17    
Moisture  
Dew Point 25 °F    
Average Humidity 45    
Maximum Humidity 81    
Minimum Humidity 17    
Precipitation  
Precipitation 0.00 in - - ()
Sea Level Pressure  
Sea Level Pressure 30.14 in    
Wind  
Wind Speed 3 mph (WSW)    
Max Wind Speed 15 mph    
Max Gust Speed 22 mph    
Visibility 10 miles    
Events      
Averages and records for this station are not official NWS values.
T = Trace of Precipitation, MM = Missing Value Source: NWS Daily Summary

Daily Weather History Graph

Daily Weather History Graph

Search for Another Location

Airport:

Trip Planner

Search our weather history database for the weather conditions in past years. The results will help you decide how hot, cold, wet, or windy it might be!

Date:

Astronomy

Apr. 30, 2012 Rise Set
Actual Time 5:58 AM PDT 7:31 PM PDT
Civil Twilight 5:31 AM PDT 7:58 PM PDT
Nautical Twilight 4:59 AM PDT 8:30 PM PDT
Astronomical Twilight 4:25 AM PDT 9:04 PM PDT
Moon 1:48 PM PDT (4/30) 2:08 AM PDT (4/30)
Length of Visible Light 14h 26m
Length of Day
13h 33m
Waxing Gibbous, 65% of the Moon is Illuminated
Apr 30
Waxing Gibbous
May 5
Full
May 12
Last Quarter
May 20
New
May 28
First Quarter

Hourly Weather History & Observations

Time (PDT) Temp. Windchill Dew Point Humidity Pressure Visibility Wind Dir Wind Speed Gust Speed Precip Events Conditions
12:15 AM 37.4 °F - 28.4 °F 70% 30.16 in 10.0 mi Calm Calm - N/A   Clear
12:35 AM 35.6 °F - 28.4 °F 75% 30.16 in 10.0 mi Calm Calm - N/A   Clear
12:55 AM 35.6 °F - 28.4 °F 75% 30.16 in 10.0 mi Calm Calm - N/A   Clear
1:15 AM 35.6 °F - 26.6 °F 70% 30.16 in 10.0 mi Calm Calm - N/A   Clear
1:35 AM 35.6 °F - 26.6 °F 70% 30.16 in 10.0 mi Calm Calm - N/A   Clear
1:55 AM 33.8 °F - 26.6 °F 75% 30.16 in 10.0 mi Calm Calm - N/A   Clear
2:15 AM 33.8 °F - 26.6 °F 75% 30.15 in 10.0 mi Calm Calm - N/A   Clear
2:35 AM 33.8 °F - 26.6 °F 75% 30.15 in 10.0 mi Calm Calm - N/A   Clear
2:55 AM 33.8 °F - 26.6 °F 75% 30.14 in 10.0 mi Calm Calm - N/A   Clear
3:15 AM 32.0 °F - 26.6 °F 80% 30.15 in 10.0 mi Calm Calm - N/A   Clear
3:35 AM 32.0 °F - 26.6 °F 80% 30.14 in 10.0 mi Calm Calm - N/A   Clear
3:55 AM 32.0 °F - 26.6 °F 80% 30.14 in 10.0 mi Calm Calm - N/A   Clear
4:15 AM 32.0 °F - 26.6 °F 80% 30.14 in 10.0 mi Calm Calm - N/A   Clear
4:35 AM 32.0 °F - 26.6 °F 80% 30.14 in 10.0 mi Calm Calm - N/A   Clear
4:55 AM 32.0 °F - 26.6 °F 80% 30.14 in 10.0 mi Calm Calm - N/A   Clear
5:15 AM 32.0 °F - 26.6 °F 80% 30.14 in 10.0 mi Calm Calm - N/A   Clear
5:35 AM 32.0 °F - 26.6 °F 80% 30.14 in 10.0 mi Calm Calm - N/A   Clear
5:55 AM 32.0 °F - 26.6 °F 80% 30.15 in 10.0 mi Calm Calm - N/A   Clear
6:15 AM 32.0 °F - 26.6 °F 80% 30.16 in 10.0 mi Calm Calm - N/A   Clear
6:35 AM 32.0 °F - 26.6 °F 80% 30.16 in 10.0 mi Calm Calm - N/A   Clear
6:55 AM 32.0 °F - 26.6 °F 80% 30.16 in 10.0 mi Calm Calm - N/A   Clear
7:15 AM 35.6 °F - 30.2 °F 81% 30.16 in 10.0 mi Calm Calm - N/A   Clear
7:35 AM 41.0 °F - 33.8 °F 76% 30.16 in 10.0 mi Calm Calm - N/A   Clear
7:55 AM 44.6 °F 43.1 °F 32.0 °F 61% 30.16 in 10.0 mi West 3.5 mph - N/A   Clear
8:15 AM 48.2 °F - 32.0 °F 54% 30.16 in 10.0 mi West 3.5 mph - N/A   Clear
8:35 AM 50.0 °F - 32.0 °F 50% 30.16 in 10.0 mi West 4.6 mph - N/A   Clear
8:55 AM 53.6 °F - 26.6 °F 35% 30.16 in 10.0 mi West 5.8 mph - N/A   Clear
9:15 AM 57.2 °F - 17.6 °F 21% 30.16 in 10.0 mi Calm Calm - N/A   Clear
9:35 AM 59.0 °F - 14.0 °F 17% 30.16 in 10.0 mi Calm Calm - N/A   Clear
9:55 AM 59.0 °F - 17.6 °F 20% 30.16 in 10.0 mi West 6.9 mph - N/A   Clear
10:15 AM 60.8 °F - 17.6 °F 19% 30.17 in 10.0 mi West 8.1 mph - N/A   Clear
10:35 AM 62.6 °F - 17.6 °F 18% 30.17 in 10.0 mi West 9.2 mph - N/A   Clear
10:55 AM 62.6 °F - 19.4 °F 19% 30.17 in 10.0 mi West 8.1 mph - N/A   Clear
11:15 AM 60.8 °F - 17.6 °F 19% 30.17 in 10.0 mi West 8.1 mph - N/A   Clear
11:35 AM 62.6 °F - 19.4 °F 19% 30.17 in 10.0 mi WSW 5.8 mph - N/A   Clear
11:55 AM 62.6 °F - 21.2 °F 20% 30.17 in 10.0 mi West 8.1 mph - N/A   Clear
12:15 PM 62.6 °F - 19.4 °F 19% 30.17 in 10.0 mi West 4.6 mph - N/A   Clear
12:35 PM 62.6 °F - 21.2 °F 20% 30.16 in 10.0 mi WNW 4.6 mph - N/A   Clear
12:55 PM 64.4 °F - 23.0 °F 21% 30.16 in 10.0 mi WSW 8.1 mph - N/A   Clear
1:15 PM 64.4 °F - 23.0 °F 21% 30.16 in 10.0 mi West 9.2 mph - N/A   Clear
1:35 PM 64.4 °F - 23.0 °F 21% 30.15 in 10.0 mi West 10.4 mph - N/A   Clear
1:55 PM 64.4 °F - 23.0 °F 21% 30.15 in 10.0 mi West 10.4 mph - N/A   Clear
2:15 PM 64.4 °F - 26.6 °F 24% 30.14 in 10.0 mi West 12.7 mph 17.3 mph N/A   Clear
2:35 PM 64.4 °F - 26.6 °F 24% 30.14 in 10.0 mi West 12.7 mph - N/A   Clear
2:55 PM 64.4 °F - 26.6 °F 24% 30.14 in 10.0 mi WSW 10.4 mph 19.6 mph N/A   Clear
3:15 PM 62.6 °F - 24.8 °F 24% 30.13 in 10.0 mi West 12.7 mph - N/A   Clear
3:35 PM 62.6 °F - 24.8 °F 24% 30.13 in 10.0 mi West 10.4 mph - N/A   Clear
3:55 PM 62.6 °F - 26.6 °F 26% 30.12 in 10.0 mi West 9.2 mph 16.1 mph N/A   Clear
4:15 PM 62.6 °F - 26.6 °F 26% 30.12 in 10.0 mi West 12.7 mph 21.9 mph N/A   Clear
4:35 PM 62.6 °F - 28.4 °F 27% 30.12 in 10.0 mi West 15.0 mph - N/A   Clear
4:55 PM 62.6 °F - 28.4 °F 27% 30.11 in 10.0 mi WSW 8.1 mph - N/A   Clear
5:15 PM 62.6 °F - 26.6 °F 26% 30.11 in 10.0 mi WSW 6.9 mph - N/A   Clear
5:35 PM 60.8 °F - 26.6 °F 27% 30.11 in 10.0 mi WSW 4.6 mph 16.1 mph N/A   Clear
5:55 PM 60.8 °F - 23.0 °F 23% 30.11 in 10.0 mi WSW 8.1 mph - N/A   Clear
6:15 PM 59.0 °F - 23.0 °F 25% 30.11 in 10.0 mi WSW 5.8 mph 11.5 mph N/A   Clear
6:35 PM 59.0 °F - 23.0 °F 25% 30.11 in 10.0 mi WSW 8.1 mph - N/A   Clear
6:55 PM 55.4 °F - 21.2 °F 26% 30.11 in 10.0 mi WSW 9.2 mph - N/A   Clear
7:15 PM 55.4 °F - 19.4 °F 25% 30.11 in 10.0 mi SW 5.8 mph - N/A   Clear
7:35 PM 53.6 °F - 19.4 °F 26% 30.11 in 10.0 mi WSW 6.9 mph - N/A   Clear
8:15 PM 51.8 °F - 23.0 °F 33% 30.11 in 10.0 mi WSW 4.6 mph - N/A   Clear
8:35 PM 51.8 °F - 23.0 °F 33% 30.11 in 10.0 mi WSW 3.5 mph - N/A   Clear
9:15 PM 50.0 °F - 23.0 °F 35% 30.12 in 10.0 mi WSW 3.5 mph - N/A   Clear
9:35 PM 50.0 °F - 23.0 °F 35% 30.12 in 10.0 mi SW 3.5 mph - N/A   Clear
9:55 PM 46.4 °F 45.2 °F 26.6 °F 46% 30.12 in 10.0 mi WSW 3.5 mph - N/A   Clear
10:15 PM 46.4 °F 44.3 °F 24.8 °F 43% 30.11 in 10.0 mi WSW 4.6 mph - N/A   Clear
10:35 PM 46.4 °F 44.3 °F 24.8 °F 43% 30.11 in 10.0 mi WSW 4.6 mph - N/A   Clear
10:55 PM 46.4 °F 44.3 °F 24.8 °F 43% 30.10 in 10.0 mi WSW 4.6 mph - N/A   Clear
11:15 PM 46.4 °F 45.2 °F 26.6 °F 46% 30.09 in 10.0 mi WSW 3.5 mph - N/A   Clear
11:35 PM 46.4 °F 44.3 °F 24.8 °F 43% 30.09 in 10.0 mi WSW 4.6 mph - N/A   Clear